Location: Roland
(31.1349°N, 85.4372°W)
Time: 23:17:21
(UTC+00:00)

S-56A Canister/Altair - Pass Details

Date: 25 April 2021
Orbit: 632 x 2501 km, 38.9° (Epoch: 11 May)

Event Time Altitude Azimuth Distance (km) Brightness Sun altitude
Rises 00:55:01 0° 216° (SW) 6,028 12.3 -8.7°
Reaches altitude 10° 00:59:29 10° 211° (SSW) 4,861 11.7 -9.5°
Maximum altitude 01:11:39 44° 145° (SE) 2,366 9.6 -11.9°
Drops below altitude 10° 01:20:14 10° 77° (ENE) 3,485 10.4 -13.6°
Enters shadow 01:21:12 - 74° (ENE) 3,745 10.6 -13.8°
